Rochester, NY

1:29 PM EDT on June 26, 2017 (GMT -0400)
Greater Rochester International

Weather History for KROC - February, 2013

Change the Weather History Date:

Wednesday, February 27, 2013

  Actual Average Record
Temperature  
Mean Temperature 34 °F 29 °F  
Max Temperature 35 °F 37 °F 66 °F (2000)
Min Temperature 33 °F 21 °F -6 °F (1993)
Degree Days  
Heating Degree Days 31 36  
Month to date heating degree days 1033 1045  
Since 1 July heating degree days 4278 4749  
Cooling Degree Days 0 0  
Month to date cooling degree days 0 0  
Year to date cooling degree days 0 0  
Moisture  
Dew Point 32 °F    
Average Humidity 93    
Maximum Humidity 96    
Minimum Humidity 89    
Precipitation  
Precipitation 0.66 in 0.08 in 0.80 in (1997)
Month to date precipitation 2.82 1.87  
Year to date precipitation 4.29 4.28  
Snow  
Snow 2.80 in 0.80 in 5.30 in (1953)
Month to date snowfall 28.3 20.8  
Since 1 July snowfall 63.4 78.2  
Snow Depth 1.00 in    
Sea Level Pressure  
Sea Level Pressure 29.63 in    
Wind  
Wind Speed 8 mph (East)    
Max Wind Speed 20 mph    
Max Gust Speed 24 mph    
Visibility 4 miles    
Events Rain , Snow    
T = Trace of Precipitation, MM = Missing Value Source: NWS Daily Summary

Daily Weather History Graph

Daily Weather History Graph

Search for Another Location

Airport or City:

Trip Planner

Search our weather history database for the weather conditions in past years. The results will help you decide how hot, cold, wet, or windy it might be!

Date:

Astronomy

Feb. 27, 2013 Rise Set
Actual Time 6:49 AM EST 5:57 PM EST
Civil Twilight 6:21 AM EST 6:26 PM EST
Nautical Twilight 5:48 AM EST 6:59 PM EST
Astronomical Twilight 5:15 AM EST 7:32 PM EST
Moon 8:22 PM EST (2/27) 7:19 AM EST (2/27)
Length of Visible Light 12h 05m
Length of Day
11h 08m
Waning Gibbous, 96% of the Moon is Illuminated
Feb 27
Waning Gibbous
Mar 4
Last Quarter
Mar 11
New
Mar 19
First Quarter
Mar 27
Full

Hourly Weather History & Observations

Time (EST) Temp. Windchill Dew Point Humidity Pressure Visibility Wind Dir Wind Speed Gust Speed Precip Events Conditions
12:16 AM 33.8 °F 23.9 °F 32.0 °F 93% 29.81 in 5.0 mi East 15.0 mph - 0.04 in Rain , Snow Light Snow
12:54 AM 34.0 °F 23.4 °F 32.0 °F 92% 29.80 in 6.0 mi East 17.3 mph - 0.09 in Rain , Snow Light Rain
1:54 AM 34.0 °F 25.5 °F 32.0 °F 92% 29.78 in 10.0 mi East 11.5 mph - 0.01 in   Overcast
2:54 AM 34.0 °F 25.5 °F 32.0 °F 92% 29.74 in 8.0 mi ESE 11.5 mph - 0.00 in Rain , Snow Light Rain
3:54 AM 34.0 °F 26.0 °F 32.0 °F 92% 29.70 in 10.0 mi East 10.4 mph - 0.01 in   Overcast
4:54 AM 33.8 °F 24.8 °F 32.0 °F 93% 29.68 in 8.0 mi East 12.7 mph - N/A Rain Light Rain
5:54 AM 34.0 °F 26.0 °F 32.0 °F 92% 29.67 in 10.0 mi East 10.4 mph - 0.02 in   Overcast
6:54 AM 34.0 °F 26.6 °F 32.0 °F 92% 29.66 in 10.0 mi East 9.2 mph - 0.00 in   Light Drizzle
7:23 AM 33.8 °F 27.7 °F 30.2 °F 87% 29.64 in 6.0 mi ENE 6.9 mph - 0.01 in Rain Light Ice Pellets
7:54 AM 34.0 °F 28.8 °F 30.9 °F 89% 29.66 in 6.0 mi East 5.8 mph - 0.02 in Rain , Snow Light Snow
8:52 AM 33.8 °F 26.4 °F 32.0 °F 93% 29.64 in 2.0 mi ENE 9.2 mph - 0.04 in Snow Light Snow
8:54 AM 33.1 °F 25.5 °F 30.9 °F 92% 29.66 in 1.2 mi ENE 9.2 mph - 0.04 in Snow Light Snow
9:39 AM 33.8 °F 27.0 °F 32.0 °F 93% 29.64 in 0.8 mi ENE 8.1 mph - 0.06 in Snow Light Snow
9:54 AM 33.1 °F 27.7 °F 32.0 °F 96% 29.65 in 0.8 mi ENE 5.8 mph - 0.08 in Snow Light Snow
10:15 AM 33.8 °F 27.7 °F 32.0 °F 93% 29.63 in 1.0 mi ENE 6.9 mph - 0.02 in Snow Light Snow
10:54 AM 34.0 °F 27.2 °F 30.9 °F 89% 29.65 in 1.0 mi ENE 8.1 mph - 0.04 in Snow Light Snow
11:27 AM 33.8 °F 28.6 °F 32.0 °F 93% 29.62 in 0.8 mi ENE 5.8 mph - N/A Snow Light Snow
11:54 AM 34.0 °F 28.0 °F 32.0 °F 92% 29.63 in 1.0 mi ENE 6.9 mph - 0.08 in Snow Light Snow
12:54 PM 35.1 °F 29.3 °F 33.1 °F 92% 29.61 in 1.0 mi ENE 6.9 mph - 0.07 in Rain , Snow Light Rain
1:09 PM 35.6 °F 30.7 °F 32.0 °F 87% 29.59 in 9.0 mi ENE 5.8 mph - 0.01 in Rain , Snow Light Rain
1:49 PM 35.6 °F 31.7 °F 33.8 °F 93% 29.58 in 2.5 mi NE 4.6 mph - 0.02 in Rain , Snow Light Rain
1:54 PM 35.1 °F 31.0 °F 33.1 °F 92% 29.60 in 1.5 mi ENE 4.6 mph - 0.02 in Rain , Snow Light Snow
2:25 PM 35.6 °F 32.8 °F 33.8 °F 93% 29.58 in 4.0 mi ENE 3.5 mph - 0.02 in Rain , Snow Light Rain
2:54 PM 35.1 °F 29.3 °F 33.1 °F 92% 29.60 in 5.0 mi NE 6.9 mph - 0.03 in Rain , Snow Light Rain
3:54 PM 35.1 °F - 33.1 °F 92% 29.60 in 4.0 mi Calm Calm - 0.01 in Rain , Snow Light Snow
4:09 PM 35.6 °F - 32.0 °F 87% 29.58 in 2.0 mi Calm Calm - 0.01 in Snow Light Snow
4:19 PM 35.6 °F - 32.0 °F 87% 29.58 in 1.8 mi Calm Calm - 0.02 in Snow Light Snow
4:54 PM 34.0 °F - 30.9 °F 89% 29.60 in 1.5 mi Calm Calm - 0.04 in Snow Light Snow
5:54 PM 33.1 °F - 32.0 °F 96% 29.60 in 1.0 mi Calm Calm - 0.02 in Snow Light Snow
6:35 PM 33.8 °F 28.6 °F 30.2 °F 87% 29.59 in 1.0 mi WSW 5.8 mph - 0.01 in Snow Light Snow
6:41 PM 33.8 °F 28.6 °F 32.0 °F 93% 29.59 in 1.0 mi WSW 5.8 mph - 0.01 in Snow Light Snow
6:54 PM 33.1 °F 27.7 °F 32.0 °F 96% 29.60 in 0.8 mi SW 5.8 mph - 0.01 in Snow Light Snow
7:08 PM 33.8 °F 28.6 °F 32.0 °F 93% 29.58 in 0.8 mi WSW 5.8 mph - 0.00 in Snow Light Snow
7:50 PM 33.8 °F 28.6 °F 32.0 °F 93% 29.57 in 1.0 mi West 5.8 mph - 0.00 in Snow Light Snow
7:54 PM 33.1 °F 27.7 °F 32.0 °F 96% 29.59 in 1.5 mi WSW 5.8 mph - 0.00 in Snow Light Snow
8:54 PM 33.8 °F 27.0 °F 32.0 °F 93% 29.58 in 1.5 mi WSW 8.1 mph - N/A Snow Light Snow
9:43 PM 33.8 °F 27.7 °F 32.0 °F 93% 29.57 in 2.0 mi WSW 6.9 mph - 0.01 in Snow Light Snow
9:54 PM 33.1 °F 26.9 °F 32.0 °F 96% 29.60 in 2.0 mi WSW 6.9 mph - 0.02 in Snow Light Snow
10:18 PM 33.8 °F 27.0 °F 32.0 °F 93% 29.57 in 1.8 mi WSW 8.1 mph - 0.01 in Snow Light Snow
10:54 PM 33.1 °F 26.9 °F 32.0 °F 96% 29.59 in 1.2 mi WSW 6.9 mph - 0.02 in Snow Light Snow
11:17 PM 33.8 °F 27.0 °F 32.0 °F 93% 29.57 in 2.0 mi WSW 8.1 mph - 0.02 in Snow Light Snow
11:24 PM 33.8 °F 26.4 °F 32.0 °F 93% 29.57 in 2.0 mi WSW 9.2 mph - 0.02 in Snow Light Snow
11:27 PM 33.8 °F 27.0 °F 32.0 °F 93% 29.57 in 3.0 mi WSW 8.1 mph - 0.02 in Snow Light Snow
11:54 PM 34.0 °F 26.6 °F 32.0 °F 92% 29.58 in 5.0 mi WSW 9.2 mph - 0.03 in Snow Light Snow